Appleton, MN

5:33 AM CST on February 24, 2017 (GMT -0600)
Appleton Municipal

Weather History for KAQP - November, 2012

Change the Weather History Date:

Sunday, November 25, 2012

  Actual Average Record
Temperature  
Mean Temperature 27 °F -  
Max Temperature 35 °F 33 °F 50 °F (1998)
Min Temperature 17 °F 17 °F -13 °F (1996)
Degree Days  
Heating Degree Days 38    
Moisture  
Dew Point 20 °F    
Average Humidity 71    
Maximum Humidity 86    
Minimum Humidity 52    
Precipitation  
Precipitation 0.00 in - - ()
Sea Level Pressure  
Sea Level Pressure 30.02 in    
Wind  
Wind Speed 16 mph (NNW)    
Max Wind Speed 26 mph    
Max Gust Speed 34 mph    
Visibility 10 miles    
Events      
Averages and records for this station are not official NWS values.
T = Trace of Precipitation, MM = Missing Value Source: NWS Daily Summary

Daily Weather History Graph

Daily Weather History Graph

Search for Another Location

Airport or City:

Trip Planner

Search our weather history database for the weather conditions in past years. The results will help you decide how hot, cold, wet, or windy it might be!

Date:

Astronomy

Nov. 25, 2012 Rise Set
Actual Time 7:36 AM CST 4:45 PM CST
Civil Twilight 7:03 AM CST 5:18 PM CST
Nautical Twilight 6:26 AM CST 5:55 PM CST
Astronomical Twilight 5:51 AM CST 6:30 PM CST
Moon 3:07 PM CST (11/25) 4:45 AM CST (11/25)
Length of Visible Light 10h 15m
Length of Day
9h 09m
Waxing Gibbous, 93% of the Moon is Illuminated
Nov 25
Waxing Gibbous
Nov 28
Full
Dec 6
Last Quarter
Dec 13
New
Dec 19
First Quarter

Hourly Weather History & Observations

Time (CST) Temp. Windchill Dew Point Humidity Pressure Visibility Wind Dir Wind Speed Gust Speed Precip Events Conditions
12:13 AM 35.6 °F 24.5 °F 28.4 °F 75% 29.83 in 10.0 mi NNW 20.7 mph 28.8 mph N/A   Overcast
12:34 AM 35.6 °F 25.2 °F 28.4 °F 75% 29.84 in 10.0 mi NNW 18.4 mph - N/A   Overcast
12:53 AM 33.8 °F 21.0 °F 26.6 °F 75% 29.85 in 10.0 mi NNW 25.3 mph 29.9 mph N/A   Overcast
1:13 AM 32.0 °F 18.4 °F 26.6 °F 80% 29.86 in 10.0 mi NNW 26.5 mph 34.5 mph N/A   Overcast
1:33 AM 32.0 °F 19.8 °F 26.6 °F 80% 29.88 in 10.0 mi NNW 20.7 mph 28.8 mph N/A   Overcast
1:53 AM 32.0 °F 20.5 °F 26.6 °F 80% 29.89 in 10.0 mi NNW 18.4 mph 25.3 mph N/A   Overcast
2:13 AM 30.2 °F 17.4 °F 24.8 °F 80% 29.90 in 10.0 mi NNW 20.7 mph 27.6 mph N/A   Overcast
2:34 AM 30.2 °F 17.8 °F 24.8 °F 80% 29.90 in 10.0 mi NNW 19.6 mph 25.3 mph N/A   Overcast
2:53 AM 28.4 °F 15.8 °F 24.8 °F 86% 29.92 in 10.0 mi NNW 18.4 mph 27.6 mph N/A   Overcast
3:13 AM 28.4 °F 17.5 °F 24.8 °F 86% 29.94 in 10.0 mi NNW 13.8 mph 19.6 mph N/A   Overcast
3:33 AM 28.4 °F 16.2 °F 23.0 °F 80% 29.93 in 10.0 mi NW 17.3 mph - N/A   Overcast
3:54 AM 26.6 °F 13.8 °F 23.0 °F 86% 29.93 in 10.0 mi North 17.3 mph 23.0 mph N/A   Overcast
4:13 AM 26.6 °F 14.3 °F 23.0 °F 86% 29.94 in 10.0 mi NNW 16.1 mph 21.9 mph N/A   Overcast
4:33 AM 26.6 °F 13.8 °F 21.2 °F 80% 29.95 in 10.0 mi NNW 17.3 mph 26.5 mph N/A   Overcast
4:53 AM 26.6 °F 14.3 °F 21.2 °F 80% 29.95 in 10.0 mi NNW 16.1 mph - N/A   Overcast
5:13 AM 26.6 °F 13.8 °F 21.2 °F 80% 29.94 in 10.0 mi NNW 17.3 mph - N/A   Overcast
5:33 AM 26.6 °F 14.3 °F 21.2 °F 80% 29.95 in 10.0 mi NNW 16.1 mph 21.9 mph N/A   Overcast
5:54 AM 24.8 °F 11.9 °F 19.4 °F 80% 29.95 in 10.0 mi NNW 16.1 mph 23.0 mph N/A   Overcast
6:13 AM 26.6 °F 15.2 °F 21.2 °F 80% 29.97 in 10.0 mi NNW 13.8 mph - N/A   Overcast
6:34 AM 26.6 °F 15.7 °F 19.4 °F 74% 29.97 in 10.0 mi NW 12.7 mph - N/A   Overcast
6:53 AM 24.8 °F 13.4 °F 19.4 °F 80% 29.98 in 10.0 mi NW 12.7 mph - N/A   Overcast
7:13 AM 24.8 °F 14.6 °F 19.4 °F 80% 29.99 in 10.0 mi NNW 10.4 mph - N/A   Overcast
7:34 AM 24.8 °F 12.4 °F 19.4 °F 80% 29.98 in 10.0 mi NW 15.0 mph - N/A   Overcast
7:53 AM 24.8 °F 15.3 °F 19.4 °F 80% 29.99 in 10.0 mi NNW 9.2 mph 12.7 mph N/A   Overcast
8:13 AM 24.8 °F 14.0 °F 19.4 °F 80% 29.99 in 10.0 mi NW 11.5 mph - N/A   Overcast
8:33 AM 26.6 °F 16.2 °F 19.4 °F 74% 30.00 in 10.0 mi NW 11.5 mph - N/A   Overcast
8:53 AM 26.6 °F 16.2 °F 19.4 °F 74% 30.00 in 10.0 mi NW 11.5 mph - N/A   Overcast
9:13 AM 26.6 °F 16.2 °F 19.4 °F 74% 30.01 in 10.0 mi NW 11.5 mph - N/A   Overcast
9:34 AM 26.6 °F 15.2 °F 19.4 °F 74% 30.01 in 10.0 mi WNW 13.8 mph - N/A   Overcast
9:54 AM 26.6 °F 16.8 °F 19.4 °F 74% 30.02 in 10.0 mi NW 10.4 mph - N/A   Overcast
10:14 AM 28.4 °F 18.5 °F 21.2 °F 74% 30.02 in 10.0 mi West 11.5 mph - N/A   Overcast
10:34 AM 28.4 °F 19.7 °F 21.2 °F 74% 30.02 in 10.0 mi West 9.2 mph - N/A   Overcast
10:53 AM 28.4 °F 19.1 °F 21.2 °F 74% 30.03 in 10.0 mi WNW 10.4 mph - N/A   Overcast
11:13 AM 28.4 °F 19.1 °F 21.2 °F 74% 30.02 in 10.0 mi NW 10.4 mph - N/A   Overcast
11:34 AM 30.2 °F 21.9 °F 21.2 °F 69% 30.01 in 10.0 mi WNW 9.2 mph - N/A   Overcast
11:53 AM 30.2 °F 19.8 °F 21.2 °F 69% 30.01 in 10.0 mi WNW 13.8 mph - N/A   Overcast
12:14 PM 30.2 °F 21.3 °F 21.2 °F 69% 30.00 in 10.0 mi WNW 10.4 mph - N/A   Overcast
12:34 PM 32.0 °F 23.0 °F 21.2 °F 64% 30.00 in 10.0 mi WNW 11.5 mph 19.6 mph N/A   Mostly Cloudy
12:53 PM 33.8 °F 24.3 °F 21.2 °F 60% 29.99 in 10.0 mi NW 13.8 mph - N/A   Mostly Cloudy
1:14 PM 35.6 °F 26.2 °F 21.2 °F 56% 29.99 in 10.0 mi WNW 15.0 mph 19.6 mph N/A   Scattered Clouds
1:34 PM 35.6 °F 25.9 °F 21.2 °F 56% 29.99 in 10.0 mi NW 16.1 mph - N/A   Scattered Clouds
1:53 PM 35.6 °F 25.9 °F 21.2 °F 56% 29.99 in 10.0 mi NW 16.1 mph 20.7 mph N/A   Scattered Clouds
2:13 PM 35.6 °F 25.2 °F 21.2 °F 56% 29.99 in 10.0 mi NNW 18.4 mph 24.2 mph N/A   Mostly Cloudy
2:33 PM 35.6 °F 26.2 °F 21.2 °F 56% 30.00 in 10.0 mi NW 15.0 mph - N/A   Mostly Cloudy
2:53 PM 35.6 °F 26.2 °F 19.4 °F 52% 30.00 in 10.0 mi NW 15.0 mph 21.9 mph N/A   Mostly Cloudy
3:13 PM 35.6 °F 25.2 °F 21.2 °F 56% 30.01 in 10.0 mi NW 18.4 mph - N/A   Overcast
3:33 PM 35.6 °F 27.1 °F 21.2 °F 56% 30.01 in 10.0 mi NW 12.7 mph 18.4 mph N/A   Overcast
3:53 PM 35.6 °F 25.9 °F 21.2 °F 56% 30.01 in 10.0 mi NW 16.1 mph - N/A   Overcast
4:13 PM 35.6 °F 27.1 °F 21.2 °F 56% 30.02 in 10.0 mi NW 12.7 mph 17.3 mph N/A   Overcast
4:33 PM 32.0 °F 19.8 °F 21.2 °F 64% 30.03 in 10.0 mi North 20.7 mph - N/A   Overcast
4:54 PM 30.2 °F 18.5 °F 21.2 °F 69% 30.04 in 10.0 mi North 17.3 mph - N/A   Overcast
5:13 PM 30.2 °F 20.2 °F 19.4 °F 64% 30.04 in 10.0 mi North 12.7 mph - N/A   Overcast
5:33 PM 30.2 °F 20.8 °F 17.6 °F 60% 30.06 in 10.0 mi North 11.5 mph - N/A   Overcast
5:53 PM 30.2 °F 20.8 °F 17.6 °F 60% 30.07 in 10.0 mi North 11.5 mph - N/A   Overcast
6:13 PM 28.4 °F 21.2 °F 19.4 °F 69% 30.09 in 10.0 mi NNW 6.9 mph - N/A   Overcast
6:33 PM 28.4 °F 20.4 °F 19.4 °F 69% 30.09 in 10.0 mi North 8.1 mph - N/A   Overcast
6:54 PM 28.4 °F 20.4 °F 19.4 °F 69% 30.09 in 10.0 mi North 8.1 mph - N/A   Overcast
7:13 PM 28.4 °F 17.0 °F 19.4 °F 69% 30.09 in 10.0 mi North 15.0 mph - N/A   Overcast
7:33 PM 26.6 °F 15.7 °F 15.8 °F 64% 30.10 in 10.0 mi North 12.7 mph - N/A   Overcast
7:53 PM 26.6 °F 15.7 °F 17.6 °F 69% 30.11 in 10.0 mi North 12.7 mph - N/A   Overcast
8:14 PM 26.6 °F 16.8 °F 17.6 °F 69% 30.12 in 10.0 mi North 10.4 mph - N/A   Overcast
8:33 PM 26.6 °F 15.2 °F 17.6 °F 69% 30.13 in 10.0 mi North 13.8 mph - N/A   Overcast
8:53 PM 24.8 °F 12.9 °F 15.8 °F 69% 30.15 in 10.0 mi NNW 13.8 mph - N/A   Overcast
9:13 PM 23.0 °F 8.7 °F 14.0 °F 68% 30.16 in 10.0 mi NNW 18.4 mph - N/A   Overcast
9:53 PM 21.2 °F 5.2 °F 10.4 °F 63% 30.19 in 10.0 mi North 21.9 mph - N/A   Overcast
10:13 PM 19.4 °F 4.5 °F 10.4 °F 68% 30.20 in 10.0 mi North 17.3 mph 26.5 mph N/A   Overcast
10:33 PM 19.4 °F 3.6 °F 8.6 °F 63% 30.20 in 10.0 mi North 19.6 mph 26.5 mph N/A   Overcast
10:53 PM 19.4 °F 4.5 °F 10.4 °F 68% 30.22 in 10.0 mi North 17.3 mph - N/A   Overcast
11:14 PM 19.4 °F 5.0 °F 10.4 °F 68% 30.23 in 10.0 mi North 16.1 mph - N/A   Overcast
11:33 PM 19.4 °F 5.5 °F 10.4 °F 68% 30.24 in 10.0 mi North 15.0 mph - N/A   Overcast
11:53 PM 17.6 °F 1.7 °F 8.6 °F 68% 30.26 in 10.0 mi North 18.4 mph - N/A   Overcast